LogoCoinalyze
    Ad-Free Version Inicio Mercados Tasas de Financiamiento
    Datos de futuros
    • Datos agregados (Monedas)
    • Gráficos individuales
    • Gráficos globales
    Alertas
    TA
    Bitcoin Ethereum BNB Ripple Tron ZCash Dogecoin Monero UNUS SED LEO Chainlink Cardano Stellar Lumens Bitcoin Cash Litecoin Hedera Cronos Polkadot Ethereum Classic Algorand Quant Cosmos VeChain Dash Bitcoin SV BitTorrent Terra Decred Tezos Iota The Graph THETA MultiversX Decentraland NEO Chiliz Golem Horizen Basic Attention Token Qtum 0x DigiByte Beam RIF Token FTX Token Holo FUNToken aelf Ontology Zilliqa Nano Enjin Coin Ravencoin Mask Network Verge Siacoin Status WINk Waves IoTeX iExec RLC Power Ledger Steem Kyber Network Crystal Lisk Ark Ardor WOO Network IOST WAX Icon Storj Loopring Wanchain Bitcoin Diamond Augur AdEx Bitcoin Gold OmiseGO NEM MonaCoin BitShares Ren Komodo V Systems Nuls Mithril SOLVE EOS Maker Aion Nebulas HedgeTrade Bread Fetch.ai TomoChain Polygon Fantom Waltonchain GXChain Bytom Metaverse ETP MaidSafeCoin QASH
    Ordenar por:
    Más
    • API
    • Patrones de velas
    • Donar
    • Contacto
    • Mapa del Sitio
    • Privacy Policy
    • Disclaimer
    • Theme:
    Español
    • English
    • Français
    • Русский
    • Deutsch
    • Türkçe
    • Nederlands
    • Português (BR)
    • 한국어
    • 简体中文
    • 日本語
     
    Iniciar sesión / Registrar
    Markets/ Pepe/ PEPE a TRY/ PEPETRY Binance
    Trades
    WL
    Chat
    Estad.
    Noticias
    ⦷
    AAA
    0.00016806 60697.00000000 12:41:54
    0.00016812 3900000.00000000 12:41:25
    0.00016819 89169.00000000 12:41:23
    0.00016820 60639.00000000 12:41:23
    0.00016827 89127.00000000 12:41:16
    0.00016840 3000000.00000000 12:41:05
    0.00016843 3779000.00000000 12:40:53
    0.00016849 181626.00000000 12:40:52
    0.00016847 3779000.00000000 12:40:50
    0.00016844 121000.00000000 12:40:47
    0.00016844 3779000.00000000 12:40:47
    0.00016832 3900000.00000000 12:40:37
    0.00016825 3900000.00000000 12:40:36
    0.00016822 79.00000000 12:40:33
    0.00016822 5481100.00000000 12:40:33
    0.00016830 3000000.00000000 12:39:54
    0.00016824 75.00000000 12:39:45
    0.00016824 181800.00000000 12:39:45
    0.00016825 3000000.00000000 12:39:33
    0.00016826 14.00000000 12:39:33
    0.00016826 862632200.00000000 12:39:33
    0.00016828 3000000.00000000 12:39:32
    0.00016831 3000000.00000000 12:39:30
    0.00016832 53.00000000 12:39:30
    0.00016832 29707100.00000000 12:39:30
    0.00016833 3000000.00000000 12:39:26
    0.00016835 3000000.00000000 12:39:21
    0.00016838 283900.00000000 12:39:19
    0.00016847 3000000.00000000 12:39:08
    0.00016848 3778000.00000000 12:39:08
    0.00016845 3000000.00000000 12:38:57
    0.00016842 3000000.00000000 12:38:25
    0.00016844 3000000.00000000 12:38:23
    0.00016853 51943566.00000000 12:38:22
    0.00016851 52278437.00000000 12:38:22
    0.00016849 95028250.00000000 12:38:22
    0.00016847 89053.00000000 12:38:22
    0.00016846 52189400.00000000 12:38:22
    0.00016845 3900000.00000000 12:38:22
    0.00016844 52371080.00000000 12:38:22
    0.00016843 361167.00000000 12:38:19
    0.00016845 3000000.00000000 12:38:19
    0.00016849 3000000.00000000 12:38:17
    0.00016849 60527.00000000 12:38:17
    0.00016856 3778000.00000000 12:38:12
    0.00016856 3000000.00000000 12:38:12
    0.00016841 3779000.00000000 12:37:48
    0.00016845 120000.00000000 12:37:43
    0.00016845 3780000.00000000 12:37:43
    0.00016840 3900000.00000000 12:37:40
    0.00016828 121228.00000000 12:37:34
    0.00016829 3000000.00000000 12:37:33
    0.00016835 3000000.00000000 12:37:28
    0.00016837 3000000.00000000 12:37:16
    0.00016839 3000000.00000000 12:37:13
    0.00016841 52189400.00000000 12:37:10
    0.00016835 3000000.00000000 12:37:05
    0.00016837 3000000.00000000 12:37:03
    0.00016833 3000000.00000000 12:36:58
    0.00016827 89167.00000000 12:36:54
    0.00016826 2546944.00000000 12:36:54
    0.00016826 3000000.00000000 12:36:47
    0.00016821 3000000.00000000 12:36:32
    0.00016824 3000000.00000000 12:36:27
    0.00016824 3000000.00000000 12:36:25
    0.00016823 3000000.00000000 12:36:07
    0.00016818 3786000.00000000 12:35:59
    0.00016821 3000000.00000000 12:35:43
    0.00016818 3712945.00000000 12:35:30
    0.00016822 3000000.00000000 12:35:25
    0.00016827 3000000.00000000 12:35:25
    0.00016829 3000000.00000000 12:35:24
    0.00016829 3000000.00000000 12:35:16
    0.00016831 3000000.00000000 12:35:14
    0.00016833 3000000.00000000 12:35:14
    0.00016835 3000000.00000000 12:35:13
    0.00016837 3000000.00000000 12:35:13
    0.00016835 79.00000000 12:35:05
    0.00016835 3088900.00000000 12:35:05
    0.00016836 14.00000000 12:35:04
    0.00016836 3795200.00000000 12:35:04
    0.00016837 89000.00000000 12:35:02
    0.00016840 3900000.00000000 12:35:01
    0.00016842 3900000.00000000 12:35:01
    0.00016842 3900000.00000000 12:35:00
    0.00016845 1005828.00000000 12:34:59
    0.00016843 181701.00000000 12:34:59
    0.00016841 53.00000000 12:34:57
    0.00016841 3989000.00000000 12:34:57
    0.00016845 3900000.00000000 12:34:56
    0.00016847 3900000.00000000 12:34:48
    0.00016849 13.00000000 12:34:37
    0.00016849 3989000.00000000 12:34:37
    0.00016845 3900000.00000000 12:34:21
    0.00016841 3900000.00000000 12:34:18
    0.00016841 3900000.00000000 12:34:13
    0.00016844 3900000.00000000 12:34:11
    0.00016845 3900000.00000000 12:34:09
    0.00016850 3900000.00000000 12:34:08
    0.00016852 3900000.00000000 12:33:56
    Desconectar
    AAA
    Ayuda
    🙂 🤣 😎 🤗 😛 😉 😜 🤑 🤔 😑 😴 😕 🙃 😲 😇 🙁 😢 😬 😟 😠 🕺 🏃 💪 ✌ 👌 👍 👎 👏 👋 🤝 🍺 🍻 🐋 🐟 🦈 🗽 🚄 ✈ 🛑 🚀 🏦 🌚 ⭐ 🌞 ⚡ 🏆 💰 💲 🔨 ❓ ❗ 💯 🔶 🏁
    ☺
    Iniciar sesión o Registrar y chatea
    24 Horas
    Variación
    +2.44%
    Volumen
    644,577,764,714
    Máx.
    0.00016900
    Mín.
    0.00016213
    7 Días
    Variación
    -9.30%
    Volumen
    5,677,608,151,729
    Máx.
    0.00019297
    Mín.
    0.00016213
    30 Días
    Variación
    +22.12%
    Volumen
    37,940,567,763,760
    Máx.
    0.00021642
    Mín.
    0.00012111
    DOGE, SHIB, PEPE, or Something Else: Which Meme Coin Can Make History in September? (3 AIs Weigh In)
    "DOGE remains the most likely to record the largest move in dollar terms and lead the entire sector," ChatGPT stated.
    cryptopotato.com
    Sept 3, 2026 00:41
    Pepe price rallies 25% as whale demand and futures interest surge
    Key takeaways Pepe has gained 25% this week, including a combined 22% advance over the previous two days. Seven whale transactions worth more than $1 million each occurred Thursday, the highest...
    coinjournal.net
    Aug 21, 2026 08:41
    PEPE Supply on Exchanges Just Took a Massive Hit – What’s Next?
    A drop in PEPE exchange balances has added to bullish expectations despite muted trader interest.
    cryptopotato.com
    Aug 6, 2026 20:02
    PEPE Exchange Outflows Hit Nearly 2-Year High as Whales Accumulate
    Pepe (PEPE) recorded its largest single-day exchange outflow since November 2024, with 4.54 trillion tokens leaving trading platforms, signaling that holders are moving supply away from immediate...
    beincrypto.com
    Aug 6, 2026 04:57
    Meme Coin Based on White House Shooter Conspiracy Rallies 320%
    $HENRY surged 300% after a 2023 Pepe tweet appeared to name the White House shooter, fueling a viral time-travel meme. The post Meme Coin Based on White House Shooter Conspiracy Rallies 320%...
    beincrypto.com
    Apr 27, 2026 16:11
    PEPE surges 4% as market sentiment improves, eyes Key resistance breakout
    Key takeaways Pepe extends gains on Wednesday, stretching its rally from the 50-day EMA. Derivatives data show heightened retail activity as risk-on sentiment returns to the market. Pepe (PEPE) is...
    coinjournal.net
    Apr 22, 2026 11:44
    Why The PEPE Price Could Stage A 55X Rally To Reach New $0.0001 ATH
    The PEPE price has now started to edge back into bullish conversations after the recent inflows into the crypto market. The last time PEPE’s weekly chart printed the kind of structure now...
    newsbtc.com
    Apr 21, 2026 15:30
    Pepe (PEPE) surges 9%, drawing interest from whales
    Key takeaways PEPE is up 9% in the last 24 hours, making it one of the best performers among the top 50 cryptocurrencies by market cap. The rally comes amid renewed interest from whales and retail...
    coinjournal.net
    Apr 16, 2026 07:40
    Murad Says SPX6900 (SPX) Is Primed for a Rally — Is He Right This Time?
    Crypto influencer Murad Mahmudov claims SPX6900 (SPX) is stabilizing at the same market cap level where Dogecoin (DOGE) and Pepe (PEPE) consolidated before their explosive rallies. The...
    beincrypto.com
    Apr 5, 2026 21:36
    The Shiba Inu Of This Cycle: Analyst Shares Why It Is Better To Buy PEPE Now
    In the bull market cycle of 2021-2022, the Shiba Inu meme coin made waves in a way that changed the face of meme coins forever. This came after Dogecoin’s initial 36,000% rally, and Shiba Inu...
    newsbtc.com
    Apr 4, 2026 07:30
    PEPE Explodes by 18% Amid Altcoin Rally, BTC Tapped $74K: Market Watch
    The frog-themed meme coin is today's biggest gainer, followed by TAO, DOT, and BONK.
    cryptopotato.com
    Mar 16, 2026 10:56
    Should PEPE traders brace for volatility as short squeeze potential builds?
    The memecoin market has seen its collective market capitalization drop by 48% over the past year, and 6.9% over the past month, according to CoinMarketCap. According to Glassnode, the memecoin...
    ambcrypto.com
    Mar 7, 2026 18:00
    Simplemente teclea el comando en el chat. Sustituir nick1 por el apodo real.
    • /ignore nick1 Ignorar un usuario del chat
    • /unignore nick1 Dejar de ignorar un usuario del chat
    • /ignorelist Mostrar usuarios del chat que has ignorado